Time,TemperatureF,DewpointF,PressureIn,WindDirection,WindDirectionDegrees,WindSpeedMPH,WindSpeedGustMPH,Humidity,HourlyPrecipIn,Conditions,Clouds,dailyrainin,SoftwareType,DateUTC
2013-02-11 00:00:00,34.3,25.5,30.07,NE,37,1.0,2.0,70,0.00,,CLR,0.00,VWS V14.01,2013-02-11 06:00:00,
2013-02-11 00:05:00,34.3,25.9,30.07,South,188,1.0,2.0,71,0.00,,CLR,0.00,VWS V14.01,2013-02-11 06:05:00,
2013-02-11 00:10:00,34.4,25.6,30.07,ESE,118,2.0,5.0,70,0.00,,CLR,0.00,VWS V14.01,2013-02-11 06:10:00,
2013-02-11 00:15:00,34.5,26.1,30.07,NW,319,1.0,3.0,71,0.00,,CLR,0.00,VWS V14.01,2013-02-11 06:15:00,
2013-02-11 00:20:00,34.5,25.7,30.07,NW,315,1.0,3.0,70,0.00,,CLR,0.00,VWS V14.01,2013-02-11 06:20:00,
2013-02-11 00:25:00,34.5,25.7,30.07,NW,317,1.0,1.0,70,0.00,,CLR,0.00,VWS V14.01,2013-02-11 06:25:00,
2013-02-11 00:30:00,34.5,25.7,30.07,West,262,1.0,2.0,70,0.00,,CLR,0.00,VWS V14.01,2013-02-11 06:30:00,
2013-02-11 00:35:00,34.4,25.6,30.07,WNW,290,1.0,1.0,70,0.00,,CLR,0.00,VWS V14.01,2013-02-11 06:35:00,
2013-02-11 00:40:00,34.2,25.8,30.08,NW,310,0.0,1.0,71,0.00,,CLR,0.00,VWS V14.01,2013-02-11 06:40:00,
2013-02-11 00:45:00,34.1,25.4,30.07,WNW,286,2.0,3.0,70,0.00,,CLR,0.00,VWS V14.01,2013-02-11 06:45:00,
2013-02-11 00:50:00,34.1,25.4,30.07,WSW,243,3.0,3.0,70,0.00,,CLR,0.00,VWS V14.01,2013-02-11 06:50:00,
2013-02-11 00:55:00,34.1,25.4,30.07,WSW,247,1.0,5.0,70,0.00,,CLR,0.00,VWS V14.01,2013-02-11 06:55:00,
2013-02-11 01:00:00,34.0,25.6,30.07,WNW,302,3.0,3.0,71,0.00,,CLR,0.00,VWS V14.01,2013-02-11 07:00:00,
2013-02-11 01:05:00,33.9,25.5,30.07,WNW,301,3.0,3.0,71,0.00,,CLR,0.00,VWS V14.01,2013-02-11 07:05:00,
2013-02-11 01:10:00,33.7,25.3,30.08,NW,323,2.0,2.0,71,0.00,,CLR,0.00,VWS V14.01,2013-02-11 07:10:00,
2013-02-11 01:15:00,33.5,25.1,30.08,WSW,245,1.0,2.0,71,0.00,,CLR,0.00,VWS V14.01,2013-02-11 07:15:00,
2013-02-11 01:20:00,33.3,25.3,30.08,SW,214,2.0,4.0,72,0.00,,CLR,0.00,VWS V14.01,2013-02-11 07:20:00,
2013-02-11 01:25:00,33.2,24.8,30.08,WNW,302,2.0,2.0,71,0.00,,CLR,0.00,VWS V14.01,2013-02-11 07:25:00,
2013-02-11 01:30:00,33.1,24.7,30.08,NW,311,3.0,3.0,71,0.00,,CLR,0.00,VWS V14.01,2013-02-11 07:30:00,
2013-02-11 01:35:00,32.9,24.5,30.09,NNW,332,2.0,3.0,71,0.00,,CLR,0.00,VWS V14.01,2013-02-11 07:35:00,
2013-02-11 01:40:00,32.8,24.8,30.09,West,261,1.0,2.0,72,0.00,,CLR,0.00,VWS V14.01,2013-02-11 07:40:00,
2013-02-11 01:45:00,32.6,24.6,30.09,NW,312,2.0,2.0,72,0.00,,CLR,0.00,VWS V14.01,2013-02-11 07:45:00,
2013-02-11 01:50:00,32.6,24.6,30.09,WSW,254,1.0,2.0,72,0.00,,CLR,0.00,VWS V14.01,2013-02-11 07:50:00,
2013-02-11 01:55:00,32.4,24.7,30.09,NW,305,3.0,3.0,73,0.00,,CLR,0.00,VWS V14.01,2013-02-11 07:55:00,
2013-02-11 02:00:00,32.4,24.7,30.10,NW,307,3.0,4.0,73,0.00,,CLR,0.00,VWS V14.01,2013-02-11 08:00:00,
2013-02-11 02:05:00,32.2,24.5,30.10,WNW,290,2.0,2.0,73,0.00,,CLR,0.00,VWS V14.01,2013-02-11 08:05:00,
2013-02-11 02:10:00,32.0,24.3,30.10,WNW,300,1.0,2.0,73,0.00,,CLR,0.00,VWS V14.01,2013-02-11 08:10:00,
2013-02-11 02:15:00,31.9,24.2,30.10,NW,311,2.0,2.0,73,0.00,,CLR,0.00,VWS V14.01,2013-02-11 08:15:00,
2013-02-11 02:20:00,31.7,24.0,30.10,West,278,1.0,1.0,73,0.00,,CLR,0.00,VWS V14.01,2013-02-11 08:20:00,
2013-02-11 02:25:00,31.7,24.0,30.10,NNW,330,3.0,4.0,73,0.00,,CLR,0.00,VWS V14.01,2013-02-11 08:25:00,
2013-02-11 02:30:00,31.5,24.2,30.10,WSW,242,3.0,3.0,74,0.00,,CLR,0.00,VWS V14.01,2013-02-11 08:30:00,
2013-02-11 02:35:00,31.5,24.2,30.11,West,260,1.0,1.0,74,0.00,,CLR,0.00,VWS V14.01,2013-02-11 08:35:00,
2013-02-11 02:40:00,31.4,24.1,30.11,West,273,2.0,3.0,74,0.00,,CLR,0.00,VWS V14.01,2013-02-11 08:40:00,
2013-02-11 02:45:00,31.4,23.8,30.11,WNW,302,4.0,4.0,73,0.00,,CLR,0.00,VWS V14.01,2013-02-11 08:45:00,
2013-02-11 02:50:00,31.2,23.9,30.10,NW,318,3.0,5.0,74,0.00,,CLR,0.00,VWS V14.01,2013-02-11 08:50:00,
2013-02-11 02:55:00,31.1,24.1,30.10,West,273,1.0,5.0,75,0.00,,CLR,0.00,VWS V14.01,2013-02-11 08:55:00,
2013-02-11 03:00:00,31.1,24.1,30.10,NW,304,3.0,6.0,75,0.00,,CLR,0.00,VWS V14.01,2013-02-11 09:00:00,
2013-02-11 03:05:00,31.2,24.2,30.11,WSW,257,3.0,5.0,75,0.00,,CLR,0.00,VWS V14.01,2013-02-11 09:05:00,
2013-02-11 03:10:00,31.3,24.0,30.11,WNW,295,3.0,6.0,74,0.00,,CLR,0.00,VWS V14.01,2013-02-11 09:10:00,
2013-02-11 03:15:00,31.3,24.0,30.11,NW,305,3.0,5.0,74,0.00,,CLR,0.00,VWS V14.01,2013-02-11 09:15:00,
2013-02-11 03:20:00,31.4,24.1,30.11,NW,315,3.0,6.0,74,0.00,,CLR,0.00,VWS V14.01,2013-02-11 09:20:00,
2013-02-11 03:24:00,31.5,24.2,30.11,WNW,294,5.0,6.0,74,0.00,,CLR,0.00,VWS V14.01,2013-02-11 09:24:00,
2013-02-11 03:25:00,31.5,24.2,30.11,WNW,297,3.0,6.0,74,0.00,,CLR,0.00,VWS V14.01,2013-02-11 09:25:00,
2013-02-11 03:29:00,31.6,24.0,30.11,NW,314,4.0,11.0,73,0.00,,CLR,0.00,VWS V14.01,2013-02-11 09:29:00,
2013-02-11 03:30:00,31.6,24.0,30.11,NW,307,4.0,11.0,73,0.00,,CLR,0.00,VWS V14.01,2013-02-11 09:30:00,
2013-02-11 03:34:00,31.6,24.0,30.11,NW,312,5.0,10.0,73,0.00,,CLR,0.00,VWS V14.01,2013-02-11 09:34:00,
2013-02-11 03:35:00,31.6,24.0,30.11,NW,316,3.0,10.0,73,0.00,,CLR,0.00,VWS V14.01,2013-02-11 09:35:00,
2013-02-11 03:39:00,31.5,23.9,30.11,WNW,299,4.0,8.0,73,0.00,,CLR,0.00,VWS V14.01,2013-02-11 09:39:00,
2013-02-11 03:40:00,31.5,23.9,30.11,NW,311,7.0,8.0,73,0.00,,CLR,0.00,VWS V14.01,2013-02-11 09:40:00,
2013-02-11 03:44:00,31.3,23.7,30.10,WNW,302,7.0,8.0,73,0.00,,CLR,0.00,VWS V14.01,2013-02-11 09:44:00,
2013-02-11 03:45:00,31.3,23.7,30.10,NW,314,6.0,8.0,73,0.00,,CLR,0.00,VWS V14.01,2013-02-11 09:45:00,
2013-02-11 03:49:00,31.2,23.9,30.11,NW,307,5.0,11.0,74,0.00,,CLR,0.00,VWS V14.01,2013-02-11 09:49:00,
2013-02-11 03:50:00,31.2,23.9,30.11,NW,312,4.0,11.0,74,0.00,,CLR,0.00,VWS V14.01,2013-02-11 09:50:00,
2013-02-11 03:54:00,31.0,23.7,30.11,NW,322,3.0,9.0,74,0.00,,CLR,0.00,VWS V14.01,2013-02-11 09:54:00,
2013-02-11 03:55:00,31.0,23.7,30.11,NW,307,4.0,9.0,74,0.00,,CLR,0.00,VWS V14.01,2013-02-11 09:55:00,
2013-02-11 03:59:00,30.8,23.8,30.11,West,269,4.0,7.0,75,0.00,,CLR,0.00,VWS V14.01,2013-02-11 09:59:00,
2013-02-11 04:00:00,30.8,23.8,30.11,WNW,291,2.0,7.0,75,0.00,,CLR,0.00,VWS V14.01,2013-02-11 10:00:00,
2013-02-11 04:04:00,30.7,23.7,30.11,NNW,329,1.0,6.0,75,0.00,,CLR,0.00,VWS V14.01,2013-02-11 10:04:00,
2013-02-11 04:05:00,30.6,23.6,30.11,WNW,298,2.0,6.0,75,0.00,,CLR,0.00,VWS V14.01,2013-02-11 10:05:00,
2013-02-11 04:09:00,30.4,23.8,30.12,WSW,239,4.0,5.0,76,0.00,,CLR,0.00,VWS V14.01,2013-02-11 10:09:00,
2013-02-11 04:10:00,30.4,23.8,30.12,SSW,203,2.0,5.0,76,0.00,,CLR,0.00,VWS V14.01,2013-02-11 10:10:00,
2013-02-11 04:14:00,30.1,23.5,30.12,WNW,287,2.0,5.0,76,0.00,,CLR,0.00,VWS V14.01,2013-02-11 10:14:00,
2013-02-11 04:15:00,30.1,23.5,30.12,West,267,1.0,5.0,76,0.00,,CLR,0.00,VWS V14.01,2013-02-11 10:15:00,
2013-02-11 04:19:00,29.9,23.3,30.13,WSW,240,2.0,3.0,76,0.00,,CLR,0.00,VWS V14.01,2013-02-11 10:19:00,
2013-02-11 04:20:00,29.9,23.3,30.13,WSW,253,1.0,3.0,76,0.00,,CLR,0.00,VWS V14.01,2013-02-11 10:20:00,
2013-02-11 04:24:00,29.7,23.1,30.13,NE,53,0.0,4.0,76,0.00,,CLR,0.00,VWS V14.01,2013-02-11 10:24:00,
2013-02-11 04:25:00,29.7,23.1,30.13,NE,48,0.0,4.0,76,0.00,,CLR,0.00,VWS V14.01,2013-02-11 10:25:00,
2013-02-11 04:29:00,29.6,23.3,30.14,West,281,3.0,6.0,77,0.00,,CLR,0.00,VWS V14.01,2013-02-11 10:29:00,
2013-02-11 04:30:00,29.6,23.3,30.14,WNW,298,5.0,6.0,77,0.00,,CLR,0.00,VWS V14.01,2013-02-11 10:30:00,
2013-02-11 04:34:00,29.5,23.2,30.14,North,354,3.0,5.0,77,0.00,,CLR,0.00,VWS V14.01,2013-02-11 10:34:00,
2013-02-11 04:35:00,29.5,23.2,30.14,WSW,242,2.0,5.0,77,0.00,,CLR,0.00,VWS V14.01,2013-02-11 10:35:00,
2013-02-11 04:39:00,29.5,23.2,30.14,NNE,17,2.0,5.0,77,0.00,,CLR,0.00,VWS V14.01,2013-02-11 10:39:00,
2013-02-11 04:40:00,29.5,23.2,30.14,West,259,2.0,5.0,77,0.00,,CLR,0.00,VWS V14.01,2013-02-11 10:40:00,
2013-02-11 04:44:00,29.5,23.2,30.14,West,270,2.0,5.0,77,0.00,,CLR,0.00,VWS V14.01,2013-02-11 10:44:00,
2013-02-11 04:45:00,29.5,23.2,30.14,West,264,1.0,5.0,77,0.00,,CLR,0.00,VWS V14.01,2013-02-11 10:45:00,
2013-02-11 04:49:00,29.6,23.3,30.14,WNW,283,3.0,4.0,77,0.00,,CLR,0.00,VWS V14.01,2013-02-11 10:49:00,
2013-02-11 04:50:00,29.6,23.3,30.14,WSW,253,4.0,5.0,77,0.00,,CLR,0.00,VWS V14.01,2013-02-11 10:50:00,
2013-02-11 04:54:00,29.6,23.3,30.14,SW,233,5.0,5.0,77,0.00,,CLR,0.00,VWS V14.01,2013-02-11 10:54:00,
2013-02-11 04:55:00,29.6,23.3,30.14,WNW,293,1.0,5.0,77,0.00,,CLR,0.00,VWS V14.01,2013-02-11 10:55:00,
2013-02-11 04:59:00,29.7,23.4,30.14,West,268,3.0,8.0,77,0.00,,CLR,0.00,VWS V14.01,2013-02-11 10:59:00,
2013-02-11 05:00:00,29.7,23.4,30.14,WSW,238,3.0,8.0,77,0.00,,CLR,0.00,VWS V14.01,2013-02-11 11:00:00,
2013-02-11 05:04:00,29.7,23.4,30.15,WNW,283,5.0,6.0,77,0.00,,CLR,0.00,VWS V14.01,2013-02-11 11:04:00,
2013-02-11 05:05:00,29.7,23.4,30.15,West,273,2.0,6.0,77,0.00,,CLR,0.00,VWS V14.01,2013-02-11 11:05:00,
2013-02-11 05:09:00,29.7,23.4,30.15,WNW,297,1.0,5.0,77,0.00,,CLR,0.00,VWS V14.01,2013-02-11 11:09:00,
2013-02-11 05:10:00,29.7,23.4,30.15,NNW,336,3.0,5.0,77,0.00,,CLR,0.00,VWS V14.01,2013-02-11 11:10:00,
2013-02-11 05:14:00,29.6,23.3,30.15,WSW,255,1.0,3.0,77,0.00,,CLR,0.00,VWS V14.01,2013-02-11 11:14:00,
2013-02-11 05:15:00,29.6,23.3,30.15,West,274,3.0,3.0,77,0.00,,CLR,0.00,VWS V14.01,2013-02-11 11:15:00,
2013-02-11 05:19:00,29.5,23.2,30.15,WNW,295,2.0,5.0,77,0.00,,CLR,0.00,VWS V14.01,2013-02-11 11:19:00,
2013-02-11 05:20:00,29.5,23.2,30.15,NE,54,1.0,5.0,77,0.00,,CLR,0.00,VWS V14.01,2013-02-11 11:20:00,
2013-02-11 05:24:00,29.5,23.2,30.15,NW,322,3.0,7.0,77,0.00,,CLR,0.00,VWS V14.01,2013-02-11 11:24:00,
2013-02-11 05:25:00,29.5,23.2,30.15,WNW,292,3.0,7.0,77,0.00,,CLR,0.00,VWS V14.01,2013-02-11 11:25:00,
2013-02-11 05:29:00,29.5,23.2,30.15,West,277,2.0,4.0,77,0.00,,CLR,0.00,VWS V14.01,2013-02-11 11:29:00,
2013-02-11 05:30:00,29.5,23.2,30.15,NW,310,3.0,4.0,77,0.00,,CLR,0.00,VWS V14.01,2013-02-11 11:30:00,
2013-02-11 05:34:00,29.3,23.0,30.15,West,273,3.0,5.0,77,0.00,,CLR,0.00,VWS V14.01,2013-02-11 11:34:00,
2013-02-11 05:35:00,29.3,23.0,30.15,WNW,284,2.0,5.0,77,0.00,,CLR,0.00,VWS V14.01,2013-02-11 11:35:00,
2013-02-11 05:39:00,29.2,23.2,30.15,WNW,287,2.0,4.0,78,0.00,,CLR,0.00,VWS V14.01,2013-02-11 11:39:00,
2013-02-11 05:40:00,29.2,23.2,30.15,WNW,302,1.0,4.0,78,0.00,,CLR,0.00,VWS V14.01,2013-02-11 11:40:00,
2013-02-11 05:44:00,28.9,22.9,30.16,WNW,283,2.0,2.0,78,0.00,,CLR,0.00,VWS V14.01,2013-02-11 11:44:00,
2013-02-11 05:45:00,28.8,22.8,30.16,NW,304,1.0,2.0,78,0.00,,CLR,0.00,VWS V14.01,2013-02-11 11:45:00,
2013-02-11 05:49:00,28.6,22.9,30.16,West,281,1.0,5.0,79,0.00,,CLR,0.00,VWS V14.01,2013-02-11 11:49:00,
2013-02-11 05:50:00,28.5,22.8,30.16,West,281,1.0,5.0,79,0.00,,CLR,0.00,VWS V14.01,2013-02-11 11:50:00,
2013-02-11 05:54:00,28.4,22.7,30.16,WNW,299,2.0,4.0,79,0.00,,CLR,0.00,VWS V14.01,2013-02-11 11:54:00,
2013-02-11 05:55:00,28.4,22.7,30.16,West,262,1.0,4.0,79,0.00,,CLR,0.00,VWS V14.01,2013-02-11 11:55:00,
2013-02-11 05:59:00,28.2,22.8,30.16,WSW,254,2.0,3.0,80,0.00,,CLR,0.00,VWS V14.01,2013-02-11 11:59:00,
2013-02-11 06:00:00,28.2,22.8,30.16,NW,319,1.0,4.0,80,0.00,,CLR,0.00,VWS V14.01,2013-02-11 12:00:00,
2013-02-11 06:04:00,28.2,22.5,30.16,WNW,296,2.0,4.0,79,0.00,,CLR,0.00,VWS V14.01,2013-02-11 12:04:00,
2013-02-11 06:05:00,28.2,22.5,30.16,WNW,302,3.0,7.0,79,0.00,,CLR,0.00,VWS V14.01,2013-02-11 12:05:00,
2013-02-11 06:09:00,28.3,22.6,30.16,WNW,302,4.0,7.0,79,0.00,,CLR,0.00,VWS V14.01,2013-02-11 12:09:00,
2013-02-11 06:10:00,28.3,22.6,30.16,NW,314,4.0,7.0,79,0.00,,CLR,0.00,VWS V14.01,2013-02-11 12:10:00,
2013-02-11 06:14:00,28.4,22.7,30.16,WNW,287,4.0,8.0,79,0.00,,CLR,0.00,VWS V14.01,2013-02-11 12:14:00,
2013-02-11 06:15:00,28.4,22.7,30.16,NW,315,6.0,8.0,79,0.00,,CLR,0.00,VWS V14.01,2013-02-11 12:15:00,
2013-02-11 06:19:00,28.5,22.5,30.16,WNW,296,2.0,8.0,78,0.00,,CLR,0.00,VWS V14.01,2013-02-11 12:19:00,
2013-02-11 06:20:00,28.5,22.5,30.16,WNW,284,3.0,8.0,78,0.00,,CLR,0.00,VWS V14.01,2013-02-11 12:20:00,
2013-02-11 06:24:00,28.6,22.6,30.17,NW,324,6.0,6.0,78,0.00,,CLR,0.00,VWS V14.01,2013-02-11 12:24:00,
2013-02-11 06:25:00,28.6,22.6,30.17,NW,305,3.0,6.0,78,0.00,,CLR,0.00,VWS V14.01,2013-02-11 12:25:00,
2013-02-11 06:29:00,28.6,22.3,30.17,WNW,286,4.0,5.0,77,0.00,,CLR,0.00,VWS V14.01,2013-02-11 12:29:00,
2013-02-11 06:30:00,28.6,22.3,30.17,NW,309,4.0,6.0,77,0.00,,FEW250,0.00,VWS V14.01,2013-02-11 12:30:00,
2013-02-11 06:34:00,28.6,22.3,30.17,NW,307,7.0,7.0,77,0.00,,CLR,0.00,VWS V14.01,2013-02-11 12:34:00,
2013-02-11 06:35:00,28.6,22.3,30.17,WNW,302,6.0,7.0,77,0.00,,FEW250,0.00,VWS V14.01,2013-02-11 12:35:00,
2013-02-11 06:39:00,28.6,22.3,30.17,NW,316,5.0,7.0,77,0.00,,CLR,0.00,VWS V14.01,2013-02-11 12:39:00,
2013-02-11 06:40:00,28.6,22.3,30.17,NW,309,4.0,7.0,77,0.00,,FEW250,0.00,VWS V14.01,2013-02-11 12:40:00,
2013-02-11 06:44:00,28.6,22.3,30.17,NW,310,4.0,8.0,77,0.00,,CLR,0.00,VWS V14.01,2013-02-11 12:44:00,
2013-02-11 06:45:00,28.6,22.3,30.17,NW,322,5.0,8.0,77,0.00,,FEW250,0.00,VWS V14.01,2013-02-11 12:45:00,
2013-02-11 06:49:00,28.6,22.3,30.17,NW,305,4.0,8.0,77,0.00,,CLR,0.00,VWS V14.01,2013-02-11 12:49:00,
2013-02-11 06:50:00,28.6,22.3,30.17,NW,321,5.0,8.0,77,0.00,,FEW250,0.00,VWS V14.01,2013-02-11 12:50:00,
2013-02-11 06:54:00,28.6,22.3,30.17,NW,326,7.0,8.0,77,0.00,,CLR,0.00,VWS V14.01,2013-02-11 12:54:00,
2013-02-11 06:55:00,28.6,22.3,30.17,WNW,303,4.0,8.0,77,0.00,,FEW250,0.00,VWS V14.01,2013-02-11 12:55:00,
2013-02-11 06:59:00,28.7,22.1,30.16,West,263,5.0,9.0,76,0.00,,CLR,0.00,VWS V14.01,2013-02-11 12:59:00,
2013-02-11 07:00:00,28.7,22.1,30.16,WNW,302,5.0,11.0,76,0.00,,FEW250,0.00,VWS V14.01,2013-02-11 13:00:00,
2013-02-11 07:04:00,28.9,22.3,30.16,WNW,298,4.0,11.0,76,0.00,,CLR,0.00,VWS V14.01,2013-02-11 13:04:00,
2013-02-11 07:05:00,28.9,22.3,30.16,NNW,329,3.0,11.0,76,0.00,,FEW250,0.00,VWS V14.01,2013-02-11 13:05:00,
2013-02-11 07:09:00,29.1,22.2,30.16,NW,311,4.0,9.0,75,0.00,,CLR,0.00,VWS V14.01,2013-02-11 13:09:00,
2013-02-11 07:10:00,29.1,22.2,30.16,NW,307,4.0,9.0,75,0.00,,FEW250,0.00,VWS V14.01,2013-02-11 13:10:00,
2013-02-11 07:14:00,29.2,22.3,30.17,WNW,295,10.0,10.0,75,0.00,,CLR,0.00,VWS V14.01,2013-02-11 13:14:00,
2013-02-11 07:15:00,29.2,22.3,30.17,NNW,329,6.0,10.0,75,0.00,,FEW250,0.00,VWS V14.01,2013-02-11 13:15:00,
2013-02-11 07:19:00,29.2,22.3,30.17,West,281,3.0,11.0,75,0.00,,CLR,0.00,VWS V14.01,2013-02-11 13:19:00,
2013-02-11 07:20:00,29.2,22.3,30.17,NW,310,6.0,11.0,75,0.00,,FEW250,0.00,VWS V14.01,2013-02-11 13:20:00,
2013-02-11 07:24:00,29.2,22.6,30.17,SW,214,4.0,8.0,76,0.00,,CLR,0.00,VWS V14.01,2013-02-11 13:24:00,
2013-02-11 07:25:00,29.2,22.3,30.17,WNW,297,3.0,8.0,75,0.00,,FEW250,0.00,VWS V14.01,2013-02-11 13:25:00,
2013-02-11 07:29:00,29.2,22.6,30.18,NW,307,2.0,7.0,76,0.00,,CLR,0.00,VWS V14.01,2013-02-11 13:29:00,
2013-02-11 07:30:00,29.2,22.3,30.18,WNW,292,2.0,7.0,75,0.00,,FEW250,0.00,VWS V14.01,2013-02-11 13:30:00,
2013-02-11 07:34:00,29.1,22.2,30.19,NW,315,2.0,6.0,75,0.00,,FEW200,0.00,VWS V14.01,2013-02-11 13:34:00,
2013-02-11 07:35:00,29.1,22.2,30.19,WNW,286,1.0,6.0,75,0.00,,FEW250,0.00,VWS V14.01,2013-02-11 13:35:00,
2013-02-11 07:39:00,28.9,22.3,30.19,WNW,285,1.0,5.0,76,0.00,,FEW200,0.00,VWS V14.01,2013-02-11 13:39:00,
2013-02-11 07:40:00,28.9,22.3,30.19,WSW,256,1.0,5.0,76,0.00,,FEW250,0.00,VWS V14.01,2013-02-11 13:40:00,
2013-02-11 07:44:00,28.8,22.2,30.19,WSW,256,1.0,3.0,76,0.00,,FEW200,0.00,VWS V14.01,2013-02-11 13:44:00,
2013-02-11 07:45:00,28.8,22.2,30.19,WSW,256,1.0,3.0,76,0.00,,FEW250,0.00,VWS V14.01,2013-02-11 13:45:00,
2013-02-11 07:49:00,28.6,22.0,30.20,SSW,208,0.0,2.0,76,0.00,,FEW200,0.00,VWS V14.01,2013-02-11 13:49:00,
2013-02-11 07:50:00,28.6,22.0,30.20,WNW,283,2.0,3.0,76,0.00,,FEW250,0.00,VWS V14.01,2013-02-11 13:50:00,
2013-02-11 07:54:00,28.5,22.2,30.20,WNW,300,1.0,4.0,77,0.00,,FEW200,0.00,VWS V14.01,2013-02-11 13:54:00,
2013-02-11 07:55:00,28.5,22.2,30.20,WNW,285,0.0,4.0,77,0.00,,FEW250,0.00,VWS V14.01,2013-02-11 13:55:00,
2013-02-11 07:59:00,28.6,22.6,30.20,WNW,298,0.0,4.0,78,0.00,,FEW200,0.00,VWS V14.01,2013-02-11 13:59:00,
2013-02-11 08:00:00,28.6,22.9,30.20,WNW,298,0.0,4.0,79,0.00,,FEW250,0.00,VWS V14.01,2013-02-11 14:00:00,
2013-02-11 08:04:00,28.7,22.4,30.20,West,272,0.0,3.0,77,0.00,,FEW200,0.00,VWS V14.01,2013-02-11 14:04:00,
2013-02-11 08:05:00,28.7,22.4,30.20,West,273,0.0,3.0,77,0.00,,FEW250,0.00,VWS V14.01,2013-02-11 14:05:00,
2013-02-11 08:09:00,28.8,22.5,30.21,WSW,252,0.0,2.0,77,0.00,,FEW200,0.00,VWS V14.01,2013-02-11 14:09:00,
2013-02-11 08:10:00,28.9,22.6,30.21,NW,322,2.0,2.0,77,0.00,,FEW250,0.00,VWS V14.01,2013-02-11 14:10:00,
2013-02-11 08:14:00,29.1,22.8,30.21,WNW,286,0.0,3.0,77,0.00,,FEW200,0.00,VWS V14.01,2013-02-11 14:14:00,
2013-02-11 08:15:00,29.1,22.8,30.21,NW,305,1.0,3.0,77,0.00,,FEW250,0.00,VWS V14.01,2013-02-11 14:15:00,
2013-02-11 08:19:00,29.2,22.6,30.21,NW,309,4.0,6.0,76,0.00,,FEW200,0.00,VWS V14.01,2013-02-11 14:19:00,
2013-02-11 08:20:00,29.3,22.4,30.21,NW,316,2.0,6.0,75,0.00,,FEW250,0.00,VWS V14.01,2013-02-11 14:20:00,
2013-02-11 08:24:00,29.6,22.7,30.21,West,266,2.0,5.0,75,0.00,,FEW200,0.00,VWS V14.01,2013-02-11 14:24:00,
2013-02-11 08:25:00,29.6,22.7,30.21,WNW,293,2.0,5.0,75,0.00,,FEW250,0.00,VWS V14.01,2013-02-11 14:25:00,
2013-02-11 08:29:00,29.8,23.2,30.22,NW,311,3.0,4.0,76,0.00,,FEW200,0.00,VWS V14.01,2013-02-11 14:29:00,
2013-02-11 08:30:00,29.9,23.0,30.22,WNW,286,2.0,4.0,75,0.00,,FEW250,0.00,VWS V14.01,2013-02-11 14:30:00,
2013-02-11 08:34:00,30.2,23.6,30.22,West,281,3.0,4.0,76,0.00,,FEW200,0.00,VWS V14.01,2013-02-11 14:34:00,
2013-02-11 08:35:00,30.3,23.3,30.22,NW,307,1.0,4.0,75,0.00,,FEW250,0.00,VWS V14.01,2013-02-11 14:35:00,
2013-02-11 08:39:00,30.5,23.2,30.22,WNW,302,3.0,5.0,74,0.00,,FEW200,0.00,VWS V14.01,2013-02-11 14:39:00,
2013-02-11 08:40:00,30.5,23.2,30.22,NW,304,1.0,5.0,74,0.00,,FEW250,0.00,VWS V14.01,2013-02-11 14:40:00,
2013-02-11 08:44:00,30.8,23.2,30.23,West,280,2.0,4.0,73,0.00,,FEW200,0.00,VWS V14.01,2013-02-11 14:44:00,
2013-02-11 08:45:00,30.8,23.2,30.23,WSW,251,1.0,4.0,73,0.00,,FEW250,0.00,VWS V14.01,2013-02-11 14:45:00,
2013-02-11 08:49:00,31.2,23.2,30.23,North,354,2.0,3.0,72,0.00,,FEW200,0.00,VWS V14.01,2013-02-11 14:49:00,
2013-02-11 08:50:00,31.3,23.3,30.23,NNW,341,1.0,5.0,72,0.00,,FEW250,0.00,VWS V14.01,2013-02-11 14:50:00,
2013-02-11 08:54:00,31.7,23.4,30.23,NW,316,1.0,3.0,71,0.00,,FEW200,0.00,VWS V14.01,2013-02-11 14:54:00,
2013-02-11 08:55:00,31.9,23.6,30.23,NW,321,2.0,3.0,71,0.00,,FEW250,0.00,VWS V14.01,2013-02-11 14:55:00,
2013-02-11 08:59:00,32.3,23.6,30.23,NW,304,5.0,6.0,70,0.00,,FEW200,0.00,VWS V14.01,2013-02-11 14:59:00,
2013-02-11 09:00:00,32.4,23.7,30.23,WNW,295,5.0,8.0,70,0.00,,FEW250,0.00,VWS V14.01,2013-02-11 15:00:00,
2013-02-11 09:04:00,32.6,23.2,30.23,NNW,345,6.0,11.0,68,0.00,,FEW200,0.00,VWS V14.01,2013-02-11 15:04:00,
2013-02-11 09:05:00,32.7,23.0,30.23,NW,321,4.0,11.0,67,0.00,,FEW250,0.00,VWS V14.01,2013-02-11 15:05:00,
2013-02-11 09:09:00,33.0,22.9,30.23,NW,322,4.0,7.0,66,0.00,,FEW200,0.00,VWS V14.01,2013-02-11 15:09:00,
2013-02-11 09:10:00,33.1,23.4,30.23,NW,319,8.0,9.0,67,0.00,,FEW250,0.00,VWS V14.01,2013-02-11 15:10:00,
2013-02-11 09:14:00,33.4,22.9,30.23,NNW,332,9.0,10.0,65,0.00,,FEW200,0.00,VWS V14.01,2013-02-11 15:14:00,
2013-02-11 09:15:00,33.4,22.5,30.23,NNW,341,3.0,11.0,64,0.00,,FEW250,0.00,VWS V14.01,2013-02-11 15:15:00,
2013-02-11 09:19:00,33.7,22.8,30.23,North,356,9.0,9.0,64,0.00,,FEW200,0.00,VWS V14.01,2013-02-11 15:19:00,
2013-02-11 09:20:00,33.7,22.5,30.23,NW,322,5.0,9.0,63,0.00,,FEW250,0.00,VWS V14.01,2013-02-11 15:20:00,
2013-02-11 09:24:00,34.0,22.7,30.24,NNW,332,5.0,8.0,63,0.00,,FEW200,0.00,VWS V14.01,2013-02-11 15:24:00,
2013-02-11 09:25:00,34.0,22.7,30.24,WNW,295,5.0,8.0,63,0.00,,FEW250,0.00,VWS V14.01,2013-02-11 15:25:00,
2013-02-11 09:29:00,34.3,22.6,30.24,West,281,7.0,10.0,62,0.00,,FEW200,0.00,VWS V14.01,2013-02-11 15:29:00,
2013-02-11 09:30:00,34.3,22.6,30.24,West,262,4.0,11.0,62,0.00,,FEW250,0.00,VWS V14.01,2013-02-11 15:30:00,
2013-02-11 09:34:00,34.5,22.8,30.24,West,281,5.0,12.0,62,0.00,,FEW200,0.00,VWS V14.01,2013-02-11 15:34:00,
2013-02-11 09:35:00,34.6,22.9,30.24,NNW,331,6.0,12.0,62,0.00,,FEW250,0.00,VWS V14.01,2013-02-11 15:35:00,
2013-02-11 09:39:00,34.8,22.0,30.24,NW,314,10.0,12.0,59,0.00,,FEW200,0.00,VWS V14.01,2013-02-11 15:39:00,
2013-02-11 09:40:00,34.8,22.0,30.24,NW,307,7.0,12.0,59,0.00,,FEW250,0.00,VWS V14.01,2013-02-11 15:40:00,
2013-02-11 09:44:00,35.0,22.1,30.24,WNW,293,6.0,15.0,59,0.00,,FEW200,0.00,VWS V14.01,2013-02-11 15:44:00,
2013-02-11 09:45:00,35.1,22.2,30.24,NNW,345,6.0,15.0,59,0.00,,FEW250,0.00,VWS V14.01,2013-02-11 15:45:00,
2013-02-11 09:49:00,35.4,22.1,30.24,NNW,336,9.0,11.0,58,0.00,,FEW200,0.00,VWS V14.01,2013-02-11 15:49:00,
2013-02-11 09:50:00,35.4,22.1,30.24,North,6,5.0,11.0,58,0.00,,FEW250,0.00,VWS V14.01,2013-02-11 15:50:00,
2013-02-11 09:54:00,35.6,21.9,30.24,NNW,328,7.0,12.0,57,0.00,,FEW200,0.00,VWS V14.01,2013-02-11 15:54:00,
2013-02-11 09:55:00,35.6,21.5,30.24,NW,305,4.0,13.0,56,0.00,,FEW250,0.00,VWS V14.01,2013-02-11 15:55:00,
2013-02-11 09:59:00,35.8,22.1,30.24,NW,326,6.0,11.0,57,0.00,,FEW200,0.00,VWS V14.01,2013-02-11 15:59:00,
2013-02-11 10:00:00,36.0,22.3,30.24,North,360,6.0,11.0,57,0.00,,FEW250,0.00,VWS V14.01,2013-02-11 16:00:00,
2013-02-11 10:04:00,36.4,22.2,30.25,NW,304,3.0,9.0,56,0.00,,FEW200,0.00,VWS V14.01,2013-02-11 16:04:00,
2013-02-11 10:05:00,36.4,21.8,30.25,WNW,283,5.0,9.0,55,0.00,,FEW250,0.00,VWS V14.01,2013-02-11 16:05:00,
2013-02-11 10:09:00,36.3,21.3,30.25,WNW,290,5.0,13.0,54,0.00,,FEW200,0.00,VWS V14.01,2013-02-11 16:09:00,
2013-02-11 10:10:00,36.3,21.3,30.25,NW,316,4.0,13.0,54,0.00,,FEW250,0.00,VWS V14.01,2013-02-11 16:10:00,
2013-02-11 10:14:00,36.5,21.9,30.25,NE,44,3.0,8.0,55,0.00,,FEW200,0.00,VWS V14.01,2013-02-11 16:14:00,
2013-02-11 10:15:00,36.5,21.9,30.25,WNW,290,5.0,8.0,55,0.00,,FEW250,0.00,VWS V14.01,2013-02-11 16:15:00,
2013-02-11 10:19:00,36.5,21.9,30.24,WNW,283,6.0,11.0,55,0.00,,FEW200,0.00,VWS V14.01,2013-02-11 16:19:00,
2013-02-11 10:20:00,36.6,22.0,30.25,North,5,5.0,11.0,55,0.00,,FEW250,0.00,VWS V14.01,2013-02-11 16:20:00,
2013-02-11 10:24:00,36.8,22.2,30.25,NNW,328,9.0,10.0,55,0.00,,FEW200,0.00,VWS V14.01,2013-02-11 16:24:00,
2013-02-11 10:25:00,36.8,21.7,30.25,NNW,345,4.0,10.0,54,0.00,,FEW250,0.00,VWS V14.01,2013-02-11 16:25:00,
2013-02-11 10:28:00,37.2,22.1,30.25,NW,316,8.0,9.0,54,0.00,,FEW200,0.00,VWS V14.01,2013-02-11 16:28:00,
2013-02-11 10:30:00,37.2,22.1,30.25,NNW,338,5.0,9.0,54,0.00,,FEW250,0.00,VWS V14.01,2013-02-11 16:30:00,
2013-02-11 10:33:00,37.4,22.3,30.25,NW,310,6.0,9.0,54,0.00,,FEW200,0.00,VWS V14.01,2013-02-11 16:33:00,
2013-02-11 10:35:00,37.4,21.9,30.25,NNE,13,11.0,11.0,53,0.00,,FEW250,0.00,VWS V14.01,2013-02-11 16:35:00,
2013-02-11 10:38:00,37.5,21.9,30.25,WNW,294,7.0,11.0,53,0.00,,FEW200,0.00,VWS V14.01,2013-02-11 16:38:00,
2013-02-11 10:40:00,37.5,21.9,30.25,NW,311,4.0,11.0,53,0.00,,FEW250,0.00,VWS V14.01,2013-02-11 16:40:00,
2013-02-11 10:43:00,38.0,22.9,30.25,NW,315,2.0,5.0,54,0.00,,FEW200,0.00,VWS V14.01,2013-02-11 16:43:00,
2013-02-11 10:45:00,38.3,23.1,30.25,North,6,4.0,9.0,54,0.00,,FEW250,0.00,VWS V14.01,2013-02-11 16:45:00,
2013-02-11 10:48:00,38.6,22.0,30.25,WNW,302,15.0,15.0,51,0.00,,FEW200,0.00,VWS V14.01,2013-02-11 16:48:00,
2013-02-11 10:50:00,38.6,22.0,30.25,NW,324,12.0,15.0,51,0.00,,FEW250,0.00,VWS V14.01,2013-02-11 16:50:00,
2013-02-11 10:53:00,38.5,22.0,30.25,WNW,302,6.0,12.0,51,0.00,,FEW200,0.00,VWS V14.01,2013-02-11 16:53:00,
2013-02-11 10:55:00,38.5,22.0,30.25,WNW,298,4.0,12.0,51,0.00,,FEW250,0.00,VWS V14.01,2013-02-11 16:55:00,
2013-02-11 10:58:00,38.7,21.7,30.25,WNW,298,2.0,9.0,50,0.00,,FEW200,0.00,VWS V14.01,2013-02-11 16:58:00,
2013-02-11 11:00:00,38.7,22.1,30.25,North,11,6.0,10.0,51,0.00,,FEW250,0.00,VWS V14.01,2013-02-11 17:00:00,
2013-02-11 11:03:00,38.9,21.9,30.25,NNW,348,4.0,9.0,50,0.00,,FEW200,0.00,VWS V14.01,2013-02-11 17:03:00,
2013-02-11 11:05:00,38.9,22.3,30.25,NNW,330,4.0,9.0,51,0.00,,FEW250,0.00,VWS V14.01,2013-02-11 17:05:00,
2013-02-11 11:08:00,39.0,21.5,30.24,NW,315,5.0,12.0,49,0.00,,FEW200,0.00,VWS V14.01,2013-02-11 17:08:00,
2013-02-11 11:10:00,39.0,21.5,30.24,North,10,4.0,13.0,49,0.00,,FEW250,0.00,VWS V14.01,2013-02-11 17:10:00,
2013-02-11 11:13:00,39.1,22.0,30.24,NNW,338,4.0,11.0,50,0.00,,FEW200,0.00,VWS V14.01,2013-02-11 17:13:00,
2013-02-11 11:15:00,39.3,22.7,30.24,NNW,331,4.0,11.0,51,0.00,,FEW250,0.00,VWS V14.01,2013-02-11 17:15:00,
2013-02-11 11:18:00,39.5,21.5,30.24,North,8,8.0,12.0,48,0.00,,FEW200,0.00,VWS V14.01,2013-02-11 17:18:00,
2013-02-11 11:20:00,39.4,21.4,30.24,NW,312,7.0,12.0,48,0.00,,FEW250,0.00,VWS V14.01,2013-02-11 17:20:00,
2013-02-11 11:23:00,39.2,21.7,30.24,NW,325,4.0,10.0,49,0.00,,FEW200,0.00,VWS V14.01,2013-02-11 17:23:00,
2013-02-11 11:25:00,39.4,21.8,30.24,NNW,348,11.0,12.0,49,0.00,,FEW250,0.00,VWS V14.01,2013-02-11 17:25:00,
2013-02-11 11:28:00,39.5,21.5,30.23,WNW,295,7.0,14.0,48,0.00,,FEW200,0.00,VWS V14.01,2013-02-11 17:28:00,
2013-02-11 11:30:00,39.6,21.5,30.23,WNW,300,3.0,14.0,48,0.00,,FEW250,0.00,VWS V14.01,2013-02-11 17:30:00,
2013-02-11 11:33:00,39.8,21.2,30.23,North,355,5.0,11.0,47,0.00,,FEW200,0.00,VWS V14.01,2013-02-11 17:33:00,
2013-02-11 11:35:00,40.0,21.4,30.23,North,8,7.0,11.0,47,0.00,,FEW250,0.00,VWS V14.01,2013-02-11 17:35:00,
2013-02-11 11:38:00,40.2,21.1,30.23,North,356,6.0,11.0,46,0.00,,FEW200,0.00,VWS V14.01,2013-02-11 17:38:00,
2013-02-11 11:40:00,40.2,21.1,30.23,WNW,297,5.0,11.0,46,0.00,,FEW250,0.00,VWS V14.01,2013-02-11 17:40:00,
2013-02-11 11:43:00,40.3,21.2,30.24,NW,307,7.0,11.0,46,0.00,,FEW200,0.00,VWS V14.01,2013-02-11 17:43:00,
2013-02-11 11:45:00,40.4,21.3,30.24,NNW,347,5.0,11.0,46,0.00,,FEW250,0.00,VWS V14.01,2013-02-11 17:45:00,
2013-02-11 11:48:00,40.6,21.5,30.23,NW,316,7.0,11.0,46,0.00,,FEW200,0.00,VWS V14.01,2013-02-11 17:48:00,
2013-02-11 11:50:00,40.7,21.0,30.23,NW,311,10.0,11.0,45,0.00,,FEW250,0.00,VWS V14.01,2013-02-11 17:50:00,
2013-02-11 11:53:00,40.7,20.5,30.23,NW,319,7.0,13.0,44,0.00,,FEW200,0.00,VWS V14.01,2013-02-11 17:53:00,
2013-02-11 11:55:00,40.6,20.4,30.23,NNW,341,7.0,13.0,44,0.00,,FEW250,0.00,VWS V14.01,2013-02-11 17:55:00,
2013-02-11 11:58:00,40.7,20.5,30.23,North,354,5.0,11.0,44,0.00,,FEW200,0.00,VWS V14.01,2013-02-11 17:58:00,
2013-02-11 12:00:00,40.7,20.5,30.23,NW,321,4.0,11.0,44,0.00,,FEW250,0.00,VWS V14.01,2013-02-11 18:00:00,
2013-02-11 12:03:00,41.0,20.2,30.23,NW,325,2.0,9.0,43,0.00,,FEW200,0.00,VWS V14.01,2013-02-11 18:03:00,
2013-02-11 12:05:00,41.1,20.3,30.23,NE,37,7.0,9.0,43,0.00,,FEW250,0.00,VWS V14.01,2013-02-11 18:05:00,
2013-02-11 12:08:00,41.3,20.5,30.23,North,10,5.0,12.0,43,0.00,,FEW200,0.00,VWS V14.01,2013-02-11 18:08:00,
2013-02-11 12:10:00,41.4,20.6,30.23,NNW,329,2.0,12.0,43,0.00,,FEW250,0.00,VWS V14.01,2013-02-11 18:10:00,
2013-02-11 12:13:00,41.9,21.0,30.23,ENE,70,6.0,11.0,43,0.00,,FEW200,0.00,VWS V14.01,2013-02-11 18:13:00,
2013-02-11 12:15:00,41.9,20.5,30.23,North,4,5.0,11.0,42,0.00,,FEW250,0.00,VWS V14.01,2013-02-11 18:15:00,
2013-02-11 12:18:00,41.7,20.3,30.23,NW,312,4.0,8.0,42,0.00,,FEW200,0.00,VWS V14.01,2013-02-11 18:18:00,
2013-02-11 12:20:00,41.9,20.5,30.22,NNE,23,6.0,8.0,42,0.00,,FEW250,0.00,VWS V14.01,2013-02-11 18:20:00,
2013-02-11 12:23:00,42.0,20.0,30.22,NNW,347,7.0,12.0,41,0.00,,FEW200,0.00,VWS V14.01,2013-02-11 18:23:00,
2013-02-11 12:25:00,42.0,20.0,30.22,NW,316,6.0,12.0,41,0.00,,FEW250,0.00,VWS V14.01,2013-02-11 18:25:00,
2013-02-11 12:28:00,42.0,20.0,30.22,North,359,11.0,11.0,41,0.00,,FEW200,0.00,VWS V14.01,2013-02-11 18:28:00,
2013-02-11 12:30:00,42.0,20.0,30.22,North,359,7.0,12.0,41,0.00,,FEW250,0.00,VWS V14.01,2013-02-11 18:30:00,
2013-02-11 12:33:00,42.0,20.0,30.22,NW,314,5.0,13.0,41,0.00,,FEW250,0.00,VWS V14.01,2013-02-11 18:33:00,
2013-02-11 12:35:00,42.0,20.0,30.22,WNW,300,5.0,13.0,41,0.00,,FEW250,0.00,VWS V14.01,2013-02-11 18:35:00,
2013-02-11 12:38:00,42.0,20.0,30.21,NNE,13,4.0,14.0,41,0.00,,FEW250,0.00,VWS V14.01,2013-02-11 18:38:00,
2013-02-11 12:40:00,42.0,20.0,30.21,NNW,334,3.0,14.0,41,0.00,,FEW250,0.00,VWS V14.01,2013-02-11 18:40:00,
2013-02-11 12:43:00,42.4,19.8,30.21,NW,318,7.0,10.0,40,0.00,,FEW250,0.00,VWS V14.01,2013-02-11 18:43:00,
2013-02-11 12:45:00,42.4,20.4,30.21,NW,312,5.0,10.0,41,0.00,,FEW250,0.00,VWS V14.01,2013-02-11 18:45:00,
2013-02-11 12:48:00,42.6,20.6,30.21,North,5,6.0,9.0,41,0.00,,FEW250,0.00,VWS V14.01,2013-02-11 18:48:00,
2013-02-11 12:50:00,42.8,20.2,30.21,NNW,334,12.0,13.0,40,0.00,,FEW250,0.00,VWS V14.01,2013-02-11 18:50:00,
2013-02-11 12:53:00,42.6,19.4,30.21,NW,311,7.0,13.0,39,0.00,,FEW250,0.00,VWS V14.01,2013-02-11 18:53:00,
2013-02-11 12:55:00,42.4,19.2,30.21,WNW,302,2.0,13.0,39,0.00,,FEW250,0.00,VWS V14.01,2013-02-11 18:55:00,
2013-02-11 12:58:00,42.5,19.9,30.20,NNW,329,7.0,10.0,40,0.00,,FEW250,0.00,VWS V14.01,2013-02-11 18:58:00,
2013-02-11 13:00:00,42.5,19.3,30.21,NW,315,5.0,10.0,39,0.00,,FEW250,0.00,VWS V14.01,2013-02-11 19:00:00,
2013-02-11 13:03:00,42.7,20.1,30.20,North,360,3.0,9.0,40,0.00,,FEW250,0.00,VWS V14.01,2013-02-11 19:03:00,
2013-02-11 13:05:00,42.9,19.7,30.20,ENE,63,3.0,9.0,39,0.00,,FEW250,0.00,VWS V14.01,2013-02-11 19:05:00,
2013-02-11 13:08:00,43.2,20.5,30.20,NW,315,4.0,10.0,40,0.00,,FEW250,0.00,VWS V14.01,2013-02-11 19:08:00,
2013-02-11 13:10:00,43.2,19.9,30.20,West,278,1.0,10.0,39,0.00,,FEW250,0.00,VWS V14.01,2013-02-11 19:10:00,
2013-02-11 13:13:00,43.2,19.9,30.20,NNW,331,6.0,11.0,39,0.00,,FEW250,0.00,VWS V14.01,2013-02-11 19:13:00,
2013-02-11 13:15:00,43.2,19.3,30.20,WNW,298,6.0,11.0,38,0.00,,FEW250,0.00,VWS V14.01,2013-02-11 19:15:00,
2013-02-11 13:18:00,43.0,20.4,30.20,West,280,4.0,8.0,40,0.00,,FEW250,0.00,VWS V14.01,2013-02-11 19:18:00,
2013-02-11 13:20:00,43.2,19.9,30.20,North,355,2.0,8.0,39,0.00,,FEW250,0.00,VWS V14.01,2013-02-11 19:20:00,
2013-02-11 13:23:00,43.1,19.2,30.20,NW,324,4.0,10.0,38,0.00,,FEW250,0.00,VWS V14.01,2013-02-11 19:23:00,
2013-02-11 13:25:00,43.2,20.5,30.20,North,354,6.0,10.0,40,0.00,,FEW250,0.00,VWS V14.01,2013-02-11 19:25:00,
2013-02-11 13:28:00,43.5,20.2,30.20,NW,311,5.0,10.0,39,0.00,,FEW250,0.00,VWS V14.01,2013-02-11 19:28:00,
2013-02-11 13:30:00,43.5,20.2,30.20,NW,319,7.0,10.0,39,0.00,,FEW250,0.00,VWS V14.01,2013-02-11 19:30:00,
2013-02-11 13:33:00,43.4,20.1,30.20,NNW,347,3.0,8.0,39,0.00,,FEW250,0.00,VWS V14.01,2013-02-11 19:33:00,
2013-02-11 13:35:00,43.4,20.1,30.20,North,353,3.0,8.0,39,0.00,,FEW250,0.00,VWS V14.01,2013-02-11 19:35:00,
2013-02-11 13:38:00,43.6,20.3,30.19,NNW,348,3.0,8.0,39,0.00,,FEW250,0.00,VWS V14.01,2013-02-11 19:38:00,
2013-02-11 13:40:00,43.9,21.2,30.19,NNW,348,6.0,8.0,40,0.00,,FEW250,0.00,VWS V14.01,2013-02-11 19:40:00,
2013-02-11 13:43:00,43.9,20.6,30.19,NW,324,5.0,7.0,39,0.00,,FEW250,0.00,VWS V14.01,2013-02-11 19:43:00,
2013-02-11 13:45:00,43.9,20.6,30.19,NNE,13,5.0,9.0,39,0.00,,FEW250,0.00,VWS V14.01,2013-02-11 19:45:00,
2013-02-11 13:48:00,44.1,21.3,30.19,NW,312,3.0,7.0,40,0.00,,FEW250,0.00,VWS V14.01,2013-02-11 19:48:00,
2013-02-11 13:50:00,44.2,21.4,30.19,NNW,346,6.0,7.0,40,0.00,,FEW250,0.00,VWS V14.01,2013-02-11 19:50:00,
2013-02-11 13:53:00,44.5,20.5,30.19,NE,51,2.0,6.0,38,0.00,,FEW250,0.00,VWS V14.01,2013-02-11 19:53:00,
2013-02-11 13:55:00,44.4,20.4,30.19,NNW,340,6.0,9.0,38,0.00,,FEW250,0.00,VWS V14.01,2013-02-11 19:55:00,
2013-02-11 13:58:00,44.3,20.9,30.18,North,355,4.0,8.0,39,0.00,,FEW250,0.00,VWS V14.01,2013-02-11 19:58:00,
2013-02-11 14:00:00,44.4,20.4,30.18,NNE,25,4.0,8.0,38,0.00,,FEW250,0.00,VWS V14.01,2013-02-11 20:00:00,
2013-02-11 14:03:00,44.4,21.0,30.18,WNW,295,6.0,9.0,39,0.00,,FEW250,0.00,VWS V14.01,2013-02-11 20:03:00,
2013-02-11 14:05:00,44.4,21.0,30.18,NW,312,6.0,9.0,39,0.00,,FEW250,0.00,VWS V14.01,2013-02-11 20:05:00,
2013-02-11 14:08:00,44.6,21.2,30.18,West,264,1.0,7.0,39,0.00,,FEW250,0.00,VWS V14.01,2013-02-11 20:08:00,
2013-02-11 14:10:00,44.8,21.4,30.18,WNW,293,2.0,7.0,39,0.00,,FEW250,0.00,VWS V14.01,2013-02-11 20:10:00,
2013-02-11 14:13:00,44.9,20.9,30.18,NNW,338,7.0,8.0,38,0.00,,FEW250,0.00,VWS V14.01,2013-02-11 20:13:00,
2013-02-11 14:15:00,44.8,20.8,30.18,NW,310,3.0,8.0,38,0.00,,FEW250,0.00,VWS V14.01,2013-02-11 20:15:00,
2013-02-11 14:18:00,44.8,20.8,30.18,North,356,7.0,8.0,38,0.00,,FEW250,0.00,VWS V14.01,2013-02-11 20:18:00,
2013-02-11 14:20:00,44.7,20.7,30.18,NNW,335,4.0,8.0,38,0.00,,FEW250,0.00,VWS V14.01,2013-02-11 20:20:00,
2013-02-11 14:23:00,44.6,20.6,30.17,ENE,60,5.0,7.0,38,0.00,,FEW250,0.00,VWS V14.01,2013-02-11 20:23:00,
2013-02-11 14:25:00,44.4,20.4,30.17,NNE,16,1.0,7.0,38,0.00,,FEW250,0.00,VWS V14.01,2013-02-11 20:25:00,
2013-02-11 14:28:00,44.7,20.7,30.17,WSW,257,5.0,7.0,38,0.00,,FEW250,0.00,VWS V14.01,2013-02-11 20:28:00,
2013-02-11 14:30:00,44.7,20.7,30.17,NNW,341,3.0,7.0,38,0.00,,FEW250,0.00,VWS V14.01,2013-02-11 20:30:00,
2013-02-11 14:33:00,44.7,20.7,30.17,NW,311,2.0,7.0,38,0.00,,FEW250,0.00,VWS V14.01,2013-02-11 20:33:00,
2013-02-11 14:35:00,46.3,20.8,30.16,NNW,335,2.0,5.0,36,0.00,,FEW085,0.00,VWS V14.01,2013-02-11 20:35:00,
2013-02-11 14:38:00,44.9,20.9,30.17,NNW,332,4.0,8.0,38,0.00,,FEW250,0.00,VWS V14.01,2013-02-11 20:38:00,
2013-02-11 14:40:00,46.2,21.4,30.15,WNW,294,4.0,6.0,37,0.00,,FEW085,0.00,VWS V14.01,2013-02-11 20:40:00,
2013-02-11 14:43:00,44.9,20.9,30.17,NNE,22,4.0,7.0,38,0.00,,FEW250,0.00,VWS V14.01,2013-02-11 20:43:00,
2013-02-11 14:45:00,45.1,21.0,30.17,North,360,2.0,7.0,38,0.00,,FEW250,0.00,VWS V14.01,2013-02-11 20:45:00,
2013-02-11 14:48:00,45.1,20.4,30.16,East,86,1.0,6.0,37,0.00,,FEW250,0.00,VWS V14.01,2013-02-11 20:48:00,
2013-02-11 14:50:00,45.1,20.4,30.16,NNW,345,8.0,8.0,37,0.00,,FEW250,0.00,VWS V14.01,2013-02-11 20:50:00,
2013-02-11 14:53:00,45.4,21.3,30.16,NNW,330,6.0,9.0,38,0.00,,FEW250,0.00,VWS V14.01,2013-02-11 20:53:00,
2013-02-11 14:55:00,46.2,20.7,30.15,North,349,3.0,8.0,36,0.00,,FEW085,0.00,VWS V14.01,2013-02-11 20:55:00,
2013-02-11 14:58:00,45.3,20.6,30.16,NE,46,4.0,6.0,37,0.00,,FEW250,0.00,VWS V14.01,2013-02-11 20:58:00,
2013-02-11 15:00:00,45.3,20.6,30.16,NW,309,4.0,6.0,37,0.00,,FEW250,0.00,VWS V14.01,2013-02-11 21:00:00,
2013-02-11 15:03:00,45.3,20.6,30.16,North,353,3.0,8.0,37,0.00,,FEW250,0.00,VWS V14.01,2013-02-11 21:03:00,
2013-02-11 15:05:00,45.3,20.6,30.16,NNW,331,4.0,8.0,37,0.00,,FEW250,0.00,VWS V14.01,2013-02-11 21:05:00,
2013-02-11 15:08:00,45.4,21.3,30.16,NE,46,4.0,5.0,38,0.00,,FEW250,0.00,VWS V14.01,2013-02-11 21:08:00,
2013-02-11 15:10:00,45.5,21.4,30.16,NNE,25,3.0,5.0,38,0.00,,FEW250,0.00,VWS V14.01,2013-02-11 21:10:00,
2013-02-11 15:13:00,45.6,21.5,30.16,NNE,12,3.0,6.0,38,0.00,,FEW250,0.00,VWS V14.01,2013-02-11 21:13:00,
2013-02-11 15:15:00,45.6,20.9,30.16,ENE,73,2.0,8.0,37,0.00,,FEW250,0.00,VWS V14.01,2013-02-11 21:15:00,
2013-02-11 15:18:00,45.9,21.1,30.16,WNW,290,5.0,8.0,37,0.00,,FEW250,0.00,VWS V14.01,2013-02-11 21:18:00,
2013-02-11 15:20:00,45.9,21.1,30.16,NNW,328,7.0,8.0,37,0.00,,FEW250,0.00,VWS V14.01,2013-02-11 21:20:00,
2013-02-11 15:23:00,45.8,21.0,30.16,NNW,331,1.0,7.0,37,0.00,,FEW250,0.00,VWS V14.01,2013-02-11 21:23:00,
2013-02-11 15:25:00,45.6,20.9,30.16,NE,42,4.0,7.0,37,0.00,,FEW250,0.00,VWS V14.01,2013-02-11 21:25:00,
2013-02-11 15:28:00,45.8,21.6,30.16,NNE,30,1.0,4.0,38,0.00,,FEW250,0.00,VWS V14.01,2013-02-11 21:28:00,
2013-02-11 15:30:00,45.8,20.4,30.15,NNW,329,1.0,5.0,36,0.00,,FEW085,0.00,VWS V14.01,2013-02-11 21:30:00,
2013-02-11 15:34:00,46.3,21.5,30.16,NW,314,5.0,5.0,37,0.00,,FEW250,0.00,VWS V14.01,2013-02-11 21:34:00,
2013-02-11 15:35:00,45.7,20.9,30.15,NNE,16,4.0,6.0,37,0.00,,FEW085,0.00,VWS V14.01,2013-02-11 21:35:00,
2013-02-11 15:39:00,46.2,21.4,30.15,North,356,2.0,6.0,37,0.00,,FEW250,0.00,VWS V14.01,2013-02-11 21:39:00,
2013-02-11 15:40:00,45.5,21.4,30.15,NW,307,2.0,5.0,38,0.00,,FEW085,0.00,VWS V14.01,2013-02-11 21:40:00,
2013-02-11 15:44:00,46.2,20.7,30.15,NNW,328,2.0,6.0,36,0.00,,FEW250,0.00,VWS V14.01,2013-02-11 21:44:00,
2013-02-11 15:45:00,45.5,20.8,30.14,NE,42,3.0,5.0,37,0.00,,FEW085,0.00,VWS V14.01,2013-02-11 21:45:00,
2013-02-11 15:49:00,46.1,20.6,30.15,WNW,290,3.0,6.0,36,0.00,,FEW250,0.00,VWS V14.01,2013-02-11 21:49:00,
2013-02-11 15:50:00,45.4,20.7,30.14,NE,37,3.0,6.0,37,0.00,,FEW085,0.00,VWS V14.01,2013-02-11 21:50:00,
2013-02-11 15:54:00,46.2,20.7,30.15,NNW,341,6.0,8.0,36,0.00,,FEW250,0.00,VWS V14.01,2013-02-11 21:54:00,
2013-02-11 15:55:00,45.3,21.2,30.14,NNE,27,1.0,4.0,38,0.00,,FEW085,0.00,VWS V14.01,2013-02-11 21:55:00,
2013-02-11 15:59:00,46.0,20.6,30.15,ENE,71,2.0,4.0,36,0.00,,FEW250,0.00,VWS V14.01,2013-02-11 21:59:00,
2013-02-11 16:00:00,45.2,21.1,30.14,NNW,331,1.0,4.0,38,0.00,,FEW085,0.00,VWS V14.01,2013-02-11 22:00:00,
2013-02-11 16:04:00,46.4,20.9,30.15,North,350,2.0,5.0,36,0.00,,FEW250,0.00,VWS V14.01,2013-02-11 22:04:00,
2013-02-11 16:05:00,45.3,21.2,30.14,WNW,302,4.0,7.0,38,0.00,,FEW085,0.00,VWS V14.01,2013-02-11 22:05:00,
2013-02-11 16:09:00,46.1,20.6,30.15,NNW,345,1.0,6.0,36,0.00,,FEW250,0.00,VWS V14.01,2013-02-11 22:09:00,
2013-02-11 16:10:00,45.1,20.4,30.14,NW,311,3.0,4.0,37,0.00,,FEW085,0.00,VWS V14.01,2013-02-11 22:10:00,
2013-02-11 16:14:00,46.2,20.7,30.15,NNE,15,1.0,4.0,36,0.00,,FEW250,0.00,VWS V14.01,2013-02-11 22:14:00,
2013-02-11 16:15:00,45.1,21.0,30.14,NNE,25,2.0,4.0,38,0.00,,FEW085,0.00,VWS V14.01,2013-02-11 22:15:00,
2013-02-11 16:19:00,46.3,20.8,30.15,NNW,328,3.0,6.0,36,0.00,,FEW250,0.00,VWS V14.01,2013-02-11 22:19:00,
2013-02-11 16:20:00,45.0,20.9,30.14,North,354,1.0,5.0,38,0.00,,FEW085,0.00,VWS V14.01,2013-02-11 22:20:00,
2013-02-11 16:24:00,46.0,20.6,30.15,NW,304,2.0,5.0,36,0.00,,FEW250,0.00,VWS V14.01,2013-02-11 22:24:00,
2013-02-11 16:25:00,44.9,20.9,30.14,NNW,347,1.0,4.0,38,0.00,,FEW085,0.00,VWS V14.01,2013-02-11 22:25:00,
2013-02-11 16:29:00,45.8,20.4,30.15,NNW,329,1.0,5.0,36,0.00,,FEW250,0.00,VWS V14.01,2013-02-11 22:29:00,
2013-02-11 16:30:00,44.7,20.7,30.14,NNE,15,1.0,3.0,38,0.00,,FEW085,0.00,VWS V14.01,2013-02-11 22:30:00,
2013-02-11 16:34:00,45.7,20.9,30.15,North,355,4.0,5.0,37,0.00,,CLR,0.00,VWS V14.01,2013-02-11 22:34:00,
2013-02-11 16:35:00,44.6,20.6,30.14,NNE,28,0.0,3.0,38,0.00,,FEW085,0.00,VWS V14.01,2013-02-11 22:35:00,
2013-02-11 16:39:00,45.5,20.8,30.15,WSW,252,2.0,5.0,37,0.00,,CLR,0.00,VWS V14.01,2013-02-11 22:39:00,
2013-02-11 16:40:00,44.5,20.5,30.14,NNW,338,1.0,3.0,38,0.00,,FEW085,0.00,VWS V14.01,2013-02-11 22:40:00,
2013-02-11 16:44:00,45.5,20.8,30.14,NNW,345,3.0,5.0,37,0.00,,CLR,0.00,VWS V14.01,2013-02-11 22:44:00,
2013-02-11 16:45:00,44.3,20.9,30.14,North,4,1.0,2.0,39,0.00,,FEW085,0.00,VWS V14.01,2013-02-11 22:45:00,
2013-02-11 16:49:00,45.4,20.7,30.14,NE,45,2.0,6.0,37,0.00,,CLR,0.00,VWS V14.01,2013-02-11 22:49:00,
2013-02-11 16:50:00,44.1,21.3,30.14,NNW,345,1.0,3.0,40,0.00,,FEW085,0.00,VWS V14.01,2013-02-11 22:50:00,
2013-02-11 16:54:00,45.3,21.2,30.14,ENE,58,3.0,4.0,38,0.00,,CLR,0.00,VWS V14.01,2013-02-11 22:54:00,
2013-02-11 16:55:00,43.8,21.1,30.14,North,349,2.0,3.0,40,0.00,,FEW085,0.00,VWS V14.01,2013-02-11 22:55:00,
2013-02-11 16:59:00,45.2,21.1,30.14,NW,324,1.0,4.0,38,0.00,,CLR,0.00,VWS V14.01,2013-02-11 22:59:00,
2013-02-11 17:00:00,43.5,21.4,30.14,NNW,345,1.0,2.0,41,0.00,,FEW085,0.00,VWS V14.01,2013-02-11 23:00:00,
2013-02-11 17:04:00,45.3,21.2,30.14,NW,307,2.0,7.0,38,0.00,,CLR,0.00,VWS V14.01,2013-02-11 23:04:00,
2013-02-11 17:05:00,43.2,21.1,30.14,NNW,332,1.0,2.0,41,0.00,,FEW085,0.00,VWS V14.01,2013-02-11 23:05:00,
2013-02-11 17:09:00,45.1,20.4,30.14,NNW,335,1.0,4.0,37,0.00,,CLR,0.00,VWS V14.01,2013-02-11 23:09:00,
2013-02-11 17:10:00,42.9,21.4,30.14,NNW,331,0.0,1.0,42,0.00,,FEW085,0.00,VWS V14.01,2013-02-11 23:10:00,
2013-02-11 17:14:00,45.0,20.9,30.14,North,9,2.0,4.0,38,0.00,,CLR,0.00,VWS V14.01,2013-02-11 23:14:00,
2013-02-11 17:15:00,42.5,21.0,30.14,NNW,328,1.0,1.0,42,0.00,,FEW085,0.00,VWS V14.01,2013-02-11 23:15:00,
2013-02-11 17:19:00,45.0,20.9,30.14,NNW,345,4.0,5.0,38,0.00,,CLR,0.00,VWS V14.01,2013-02-11 23:19:00,
2013-02-11 17:20:00,42.2,21.3,30.15,NNW,328,0.0,1.0,43,0.00,,FEW085,0.00,VWS V14.01,2013-02-11 23:20:00,
2013-02-11 17:24:00,44.9,20.9,30.14,NNW,348,2.0,4.0,38,0.00,,CLR,0.00,VWS V14.01,2013-02-11 23:24:00,
2013-02-11 17:25:00,41.9,21.0,30.15,NNW,328,0.0,1.0,43,0.00,,FEW085,0.00,VWS V14.01,2013-02-11 23:25:00,
2013-02-11 17:29:00,44.7,20.7,30.14,NNE,15,1.0,3.0,38,0.00,,CLR,0.00,VWS V14.01,2013-02-11 23:29:00,
2013-02-11 17:30:00,41.6,20.8,30.15,NNW,328,0.0,1.0,43,0.00,,FEW085,0.00,VWS V14.01,2013-02-11 23:30:00,
2013-02-11 17:34:00,44.6,20.6,30.14,NNE,29,1.0,3.0,38,0.00,,CLR,0.00,VWS V14.01,2013-02-11 23:34:00,
2013-02-11 17:35:00,41.2,21.0,30.15,NNW,328,0.0,0.0,44,0.00,,FEW085,0.00,VWS V14.01,2013-02-11 23:35:00,
2013-02-11 17:39:00,44.5,21.1,30.14,NNE,23,1.0,3.0,39,0.00,,CLR,0.00,VWS V14.01,2013-02-11 23:39:00,
2013-02-11 17:40:00,40.9,20.7,30.15,NNW,327,0.0,0.0,44,0.00,,FEW085,0.00,VWS V14.01,2013-02-11 23:40:00,
2013-02-11 17:44:00,44.4,21.0,30.14,North,354,1.0,2.0,39,0.00,,CLR,0.00,VWS V14.01,2013-02-11 23:44:00,
2013-02-11 17:45:00,40.5,20.9,30.15,NNW,328,0.0,1.0,45,0.00,,FEW085,0.00,VWS V14.01,2013-02-11 23:45:00,
2013-02-11 17:49:00,44.2,21.4,30.14,NNW,338,0.0,3.0,40,0.00,,CLR,0.00,VWS V14.01,2013-02-11 23:49:00,
2013-02-11 17:50:00,40.2,21.1,30.15,NNW,327,0.0,1.0,46,0.00,,FEW085,0.00,VWS V14.01,2013-02-11 23:50:00,
2013-02-11 17:54:00,43.9,21.2,30.14,NNE,19,3.0,3.0,40,0.00,,CLR,0.00,VWS V14.01,2013-02-11 23:54:00,
2013-02-11 17:55:00,39.9,21.3,30.16,NNW,328,0.0,0.0,47,0.00,,FEW085,0.00,VWS V14.01,2013-02-11 23:55:00,
2013-02-11 17:59:00,43.6,21.5,30.14,North,352,2.0,2.0,41,0.00,,CLR,0.00,VWS V14.01,2013-02-11 23:59:00,
2013-02-11 18:00:00,39.4,20.9,30.16,NNW,328,0.0,0.0,47,0.00,,FEW085,0.00,VWS V14.01,2013-02-12 00:00:00,
2013-02-11 18:04:00,43.3,21.2,30.14,NNW,331,1.0,2.0,41,0.00,,CLR,0.00,VWS V14.01,2013-02-12 00:04:00,
2013-02-11 18:05:00,39.2,21.2,30.16,NNW,328,1.0,1.0,48,0.00,,FEW085,0.00,VWS V14.01,2013-02-12 00:05:00,
2013-02-11 18:09:00,43.0,21.5,30.14,NNW,332,0.0,1.0,42,0.00,,CLR,0.00,VWS V14.01,2013-02-12 00:09:00,
2013-02-11 18:10:00,39.4,21.4,30.16,NNW,328,0.0,1.0,48,0.00,,FEW085,0.00,VWS V14.01,2013-02-12 00:10:00,
2013-02-11 18:14:00,42.5,21.0,30.14,NNW,332,1.0,1.0,42,0.00,,CLR,0.00,VWS V14.01,2013-02-12 00:14:00,
2013-02-11 18:15:00,39.1,21.6,30.16,NNW,327,0.0,0.0,49,0.00,,FEW085,0.00,VWS V14.01,2013-02-12 00:15:00,
2013-02-11 18:19:00,42.2,20.8,30.15,NNW,328,0.0,1.0,42,0.00,,CLR,0.00,VWS V14.01,2013-02-12 00:19:00,
2013-02-11 18:20:00,38.7,21.2,30.16,NNW,328,0.0,1.0,49,0.00,,FEW085,0.00,VWS V14.01,2013-02-12 00:20:00,
2013-02-11 18:24:00,41.9,21.0,30.15,NNW,328,0.0,1.0,43,0.00,,CLR,0.00,VWS V14.01,2013-02-12 00:24:00,
2013-02-11 18:25:00,38.3,21.3,30.16,NNW,327,0.0,1.0,50,0.00,,FEW085,0.00,VWS V14.01,2013-02-12 00:25:00,
2013-02-11 18:29:00,41.6,20.8,30.15,NNW,327,0.0,1.0,43,0.00,,CLR,0.00,VWS V14.01,2013-02-12 00:29:00,
2013-02-11 18:30:00,38.0,21.5,30.16,NNW,328,0.0,1.0,51,0.00,,FEW085,0.00,VWS V14.01,2013-02-12 00:30:00,
2013-02-11 18:34:00,41.3,21.0,30.15,NNW,328,0.0,0.0,44,0.00,,CLR,0.00,VWS V14.01,2013-02-12 00:34:00,
2013-02-11 18:35:00,37.9,21.9,30.16,NNW,328,0.0,0.0,52,0.00,,FEW085,0.00,VWS V14.01,2013-02-12 00:35:00,
2013-02-11 18:39:00,40.9,20.7,30.15,NNW,327,0.0,0.0,44,0.00,,CLR,0.00,VWS V14.01,2013-02-12 00:39:00,
2013-02-11 18:40:00,37.7,21.7,30.16,NNW,328,0.0,1.0,52,0.00,,FEW085,0.00,VWS V14.01,2013-02-12 00:40:00,
2013-02-11 18:44:00,40.6,20.9,30.15,NNW,328,0.0,1.0,45,0.00,,CLR,0.00,VWS V14.01,2013-02-12 00:44:00,
2013-02-11 18:45:00,37.5,21.9,30.16,NNW,327,0.0,0.0,53,0.00,,FEW085,0.00,VWS V14.01,2013-02-12 00:45:00,
2013-02-11 18:49:00,40.3,21.2,30.15,NNW,327,0.0,1.0,46,0.00,,CLR,0.00,VWS V14.01,2013-02-12 00:49:00,
2013-02-11 18:50:00,37.7,22.1,30.16,NNW,338,0.0,1.0,53,0.00,,FEW085,0.00,VWS V14.01,2013-02-12 00:50:00,
2013-02-11 18:54:00,39.9,21.3,30.16,NNW,328,0.0,0.0,47,0.00,,CLR,0.00,VWS V14.01,2013-02-12 00:54:00,
2013-02-11 18:55:00,37.8,22.2,30.16,NNW,338,0.0,1.0,53,0.00,,FEW085,0.00,VWS V14.01,2013-02-12 00:55:00,
2013-02-11 18:59:00,39.5,21.0,30.16,NNW,328,0.0,0.0,47,0.00,,CLR,0.00,VWS V14.01,2013-02-12 00:59:00,
2013-02-11 19:00:00,37.7,22.1,30.16,NNW,338,0.0,0.0,53,0.00,,FEW085,0.00,VWS V14.01,2013-02-12 01:00:00,
2013-02-11 19:04:00,39.2,21.2,30.16,NNW,327,1.0,1.0,48,0.00,,CLR,0.00,VWS V14.01,2013-02-12 01:04:00,
2013-02-11 19:05:00,37.8,22.2,30.16,NNE,26,2.0,2.0,53,0.00,,FEW085,0.00,VWS V14.01,2013-02-12 01:05:00,
2013-02-11 19:09:00,39.3,21.3,30.16,NNW,328,0.0,1.0,48,0.00,,CLR,0.00,VWS V14.01,2013-02-12 01:09:00,
2013-02-11 19:10:00,37.9,22.3,30.16,NE,44,0.0,2.0,53,0.00,,FEW085,0.00,VWS V14.01,2013-02-12 01:10:00,
2013-02-11 19:14:00,39.1,21.1,30.16,NNW,328,0.0,0.0,48,0.00,,CLR,0.00,VWS V14.01,2013-02-12 01:14:00,
2013-02-11 19:15:00,37.7,22.1,30.16,NE,44,0.0,1.0,53,0.00,,FEW085,0.00,VWS V14.01,2013-02-12 01:15:00,
2013-02-11 19:19:00,38.7,21.2,30.16,NNW,328,0.0,1.0,49,0.00,,CLR,0.00,VWS V14.01,2013-02-12 01:19:00,
2013-02-11 19:20:00,37.5,21.9,30.16,NE,44,0.0,1.0,53,0.00,,FEW085,0.00,VWS V14.01,2013-02-12 01:20:00,
2013-02-11 19:24:00,38.4,21.4,30.16,NNW,328,0.0,1.0,50,0.00,,CLR,0.00,VWS V14.01,2013-02-12 01:24:00,
2013-02-11 19:25:00,37.3,22.2,30.16,NE,44,0.0,0.0,54,0.00,,FEW085,0.00,VWS V14.01,2013-02-12 01:25:00,
2013-02-11 19:29:00,38.1,21.6,30.16,NNW,328,0.0,1.0,51,0.00,,CLR,0.00,VWS V14.01,2013-02-12 01:29:00,
2013-02-11 19:30:00,36.9,21.8,30.16,NE,44,0.0,0.0,54,0.00,,FEW085,0.00,VWS V14.01,2013-02-12 01:30:00,
2013-02-11 19:34:00,37.9,21.9,30.16,NNW,328,0.0,0.0,52,0.00,,FEW110,0.00,VWS V14.01,2013-02-12 01:34:00,
2013-02-11 19:35:00,36.7,23.7,30.16,NE,44,0.0,0.0,59,0.00,,FEW085,0.00,VWS V14.01,2013-02-12 01:35:00,
2013-02-11 19:39:00,37.8,21.8,30.16,NNW,328,0.0,1.0,52,0.00,,FEW110,0.00,VWS V14.01,2013-02-12 01:39:00,
2013-02-11 19:40:00,36.0,23.5,30.16,NE,44,0.0,0.0,60,0.00,,FEW085,0.00,VWS V14.01,2013-02-12 01:40:00,
2013-02-11 19:44:00,37.5,21.9,30.16,NNW,328,0.0,0.0,53,0.00,,FEW110,0.00,VWS V14.01,2013-02-12 01:44:00,
2013-02-11 19:45:00,35.4,22.5,30.16,NE,44,0.0,1.0,59,0.00,,FEW085,0.00,VWS V14.01,2013-02-12 01:45:00,
2013-02-11 19:49:00,37.6,22.0,30.16,NNW,338,0.0,1.0,53,0.00,,FEW110,0.00,VWS V14.01,2013-02-12 01:49:00,
2013-02-11 19:50:00,35.0,22.9,30.16,NE,44,0.0,0.0,61,0.00,,FEW085,0.00,VWS V14.01,2013-02-12 01:50:00,
2013-02-11 19:54:00,37.8,22.2,30.16,NNW,338,0.0,1.0,53,0.00,,FEW110,0.00,VWS V14.01,2013-02-12 01:54:00,
2013-02-11 19:55:00,35.0,22.9,30.16,NE,44,0.0,1.0,61,0.00,,FEW085,0.00,VWS V14.01,2013-02-12 01:55:00,
2013-02-11 19:59:00,37.7,22.1,30.16,NNW,338,0.0,0.0,53,0.00,,FEW110,0.00,VWS V14.01,2013-02-12 01:59:00,
2013-02-11 20:00:00,34.8,23.9,30.16,NE,44,0.0,0.0,64,0.00,,FEW085,0.00,VWS V14.01,2013-02-12 02:00:00,
2013-02-11 20:04:00,37.7,22.1,30.16,NNE,26,1.0,2.0,53,0.00,,FEW110,0.00,VWS V14.01,2013-02-12 02:04:00,
2013-02-11 20:05:00,34.4,23.5,30.17,NE,44,0.0,1.0,64,0.00,,FEW085,0.00,VWS V14.01,2013-02-12 02:05:00,
2013-02-11 20:09:00,37.9,22.3,30.16,NE,44,0.0,2.0,53,0.00,,FEW110,0.00,VWS V14.01,2013-02-12 02:09:00,
2013-02-11 20:10:00,34.1,24.3,30.17,NE,44,0.0,1.0,67,0.00,,FEW085,0.00,VWS V14.01,2013-02-12 02:10:00,
2013-02-11 20:14:00,37.8,22.2,30.16,NE,44,0.0,1.0,53,0.00,,FEW110,0.00,VWS V14.01,2013-02-12 02:14:00,
2013-02-11 20:15:00,33.8,24.4,30.17,NE,44,0.0,0.0,68,0.00,,FEW085,0.00,VWS V14.01,2013-02-12 02:15:00,
2013-02-11 20:19:00,37.6,22.0,30.16,NE,44,0.0,1.0,53,0.00,,FEW110,0.00,VWS V14.01,2013-02-12 02:19:00,
2013-02-11 20:20:00,33.5,24.1,30.17,NE,44,0.0,0.0,68,0.00,,FEW085,0.00,VWS V14.01,2013-02-12 02:20:00,
2013-02-11 20:24:00,37.4,22.3,30.16,NE,44,0.0,0.0,54,0.00,,FEW110,0.00,VWS V14.01,2013-02-12 02:24:00,
2013-02-11 20:25:00,33.2,24.1,30.17,NE,44,0.0,0.0,69,0.00,,FEW085,0.00,VWS V14.01,2013-02-12 02:25:00,
2013-02-11 20:29:00,37.0,21.9,30.16,NE,44,0.0,0.0,54,0.00,,FEW110,0.00,VWS V14.01,2013-02-12 02:29:00,
2013-02-11 20:30:00,33.1,23.7,30.17,NE,44,0.0,0.0,68,0.00,,FEW085,0.00,VWS V14.01,2013-02-12 02:30:00,
2013-02-11 20:34:00,36.7,23.7,30.16,NE,44,0.0,0.0,59,0.00,,SCT110,0.00,VWS V14.01,2013-02-12 02:34:00,
2013-02-11 20:35:00,32.9,23.2,30.17,NE,44,0.0,0.0,67,0.00,,FEW085,0.00,VWS V14.01,2013-02-12 02:35:00,
2013-02-11 20:39:00,36.1,23.6,30.16,NE,44,0.0,0.0,60,0.00,,SCT110,0.00,VWS V14.01,2013-02-12 02:39:00,
2013-02-11 20:40:00,32.6,23.9,30.18,NE,44,1.0,1.0,70,0.00,,FEW085,0.00,VWS V14.01,2013-02-12 02:40:00,
2013-02-11 20:44:00,35.5,22.6,30.16,NE,44,0.0,1.0,59,0.00,,SCT110,0.00,VWS V14.01,2013-02-12 02:44:00,
2013-02-11 20:45:00,32.3,24.0,30.18,NE,44,0.0,1.0,71,0.00,,FEW085,0.00,VWS V14.01,2013-02-12 02:45:00,
2013-02-11 20:49:00,35.0,22.5,30.16,NE,44,0.0,0.0,60,0.00,,SCT110,0.00,VWS V14.01,2013-02-12 02:49:00,
2013-02-11 20:50:00,32.2,24.2,30.18,NE,44,1.0,1.0,72,0.00,,FEW085,0.00,VWS V14.01,2013-02-12 02:50:00,
2013-02-11 20:54:00,35.0,23.3,30.16,NE,44,0.0,1.0,62,0.00,,SCT110,0.00,VWS V14.01,2013-02-12 02:54:00,
2013-02-11 20:55:00,32.4,25.7,30.18,NE,44,1.0,1.0,76,0.00,,FEW085,0.00,VWS V14.01,2013-02-12 02:55:00,
2013-02-11 20:59:00,34.8,23.9,30.16,NE,44,0.0,0.0,64,0.00,,SCT110,0.00,VWS V14.01,2013-02-12 02:59:00,
2013-02-11 21:00:00,32.4,24.1,30.18,NE,44,0.0,1.0,71,0.00,,FEW085,0.00,VWS V14.01,2013-02-12 03:00:00,
2013-02-11 21:04:00,34.4,23.5,30.17,NE,44,0.0,1.0,64,0.00,,SCT110,0.00,VWS V14.01,2013-02-12 03:04:00,
2013-02-11 21:05:00,32.5,23.5,30.18,NE,44,1.0,1.0,69,0.00,,FEW085,0.00,VWS V14.01,2013-02-12 03:05:00,
2013-02-11 21:09:00,34.2,24.0,30.17,NE,44,0.0,1.0,66,0.00,,SCT110,0.00,VWS V14.01,2013-02-12 03:09:00,
2013-02-11 21:10:00,32.7,23.7,30.18,NE,44,1.0,1.0,69,0.00,,FEW085,0.00,VWS V14.01,2013-02-12 03:10:00,
2013-02-11 21:14:00,33.8,24.0,30.17,NE,44,0.0,0.0,67,0.00,,SCT110,0.00,VWS V14.01,2013-02-12 03:14:00,
2013-02-11 21:15:00,32.8,24.1,30.19,NE,44,0.0,1.0,70,0.00,,FEW085,0.00,VWS V14.01,2013-02-12 03:15:00,
2013-02-11 21:19:00,33.6,24.5,30.17,NE,44,0.0,0.0,69,0.00,,SCT110,0.00,VWS V14.01,2013-02-12 03:19:00,
2013-02-11 21:20:00,32.8,23.8,30.19,NE,44,0.0,0.0,69,0.00,,FEW085,0.00,VWS V14.01,2013-02-12 03:20:00,
2013-02-11 21:24:00,33.2,23.5,30.17,NE,44,0.0,0.0,67,0.00,,SCT110,0.00,VWS V14.01,2013-02-12 03:24:00,
2013-02-11 21:25:00,32.8,24.1,30.19,NE,44,1.0,1.0,70,0.00,,FEW085,0.00,VWS V14.01,2013-02-12 03:25:00,
2013-02-11 21:29:00,33.1,24.0,30.17,NE,44,0.0,0.0,69,0.00,,SCT110,0.00,VWS V14.01,2013-02-12 03:29:00,
2013-02-11 21:30:00,32.8,24.8,30.19,NE,35,1.0,1.0,72,0.00,,FEW085,0.00,VWS V14.01,2013-02-12 03:30:00,
2013-02-11 21:34:00,33.0,23.2,30.17,NE,44,0.0,0.0,67,0.00,,SCT110,0.00,VWS V14.01,2013-02-12 03:34:00,
2013-02-11 21:35:00,32.7,24.0,30.19,NE,35,0.0,1.0,70,0.00,,FEW085,0.00,VWS V14.01,2013-02-12 03:35:00,
2013-02-11 21:39:00,32.6,23.9,30.18,NE,44,0.0,0.0,70,0.00,,SCT110,0.00,VWS V14.01,2013-02-12 03:39:00,
2013-02-11 21:40:00,32.7,23.3,30.19,NE,35,0.0,1.0,68,0.00,,FEW085,0.00,VWS V14.01,2013-02-12 03:40:00,
2013-02-11 21:43:00,32.4,24.1,30.18,NE,44,1.0,1.0,71,0.00,,SCT110,0.00,VWS V14.01,2013-02-12 03:43:00,
2013-02-11 21:45:00,32.5,23.5,30.19,NE,36,0.0,0.0,69,0.00,,FEW085,0.00,VWS V14.01,2013-02-12 03:45:00,
2013-02-11 21:48:00,32.2,24.2,30.18,NE,44,0.0,1.0,72,0.00,,SCT110,0.00,VWS V14.01,2013-02-12 03:48:00,
2013-02-11 21:50:00,32.2,23.2,30.19,NE,35,0.0,0.0,69,0.00,,FEW085,0.00,VWS V14.01,2013-02-12 03:50:00,
2013-02-11 21:53:00,32.4,24.4,30.18,NE,44,1.0,1.0,72,0.00,,SCT110,0.00,VWS V14.01,2013-02-12 03:53:00,
2013-02-11 21:55:00,31.8,23.1,30.19,NE,36,0.0,0.0,70,0.00,,FEW085,0.00,VWS V14.01,2013-02-12 03:55:00,
2013-02-11 21:58:00,32.5,24.2,30.18,NE,44,0.0,1.0,71,0.00,,SCT110,0.00,VWS V14.01,2013-02-12 03:58:00,
2013-02-11 22:00:00,31.9,23.9,30.20,NE,36,0.0,1.0,72,0.00,,FEW085,0.00,VWS V14.01,2013-02-12 04:00:00,
2013-02-11 22:03:00,32.4,23.4,30.18,NE,44,0.0,1.0,69,0.00,,SCT110,0.00,VWS V14.01,2013-02-12 04:03:00,
2013-02-11 22:05:00,32.0,23.7,30.20,NE,35,0.0,0.0,71,0.00,,FEW085,0.00,VWS V14.01,2013-02-12 04:05:00,
2013-02-11 22:08:00,32.7,23.7,30.18,NE,44,1.0,1.0,69,0.00,,SCT110,0.00,VWS V14.01,2013-02-12 04:08:00,
2013-02-11 22:10:00,32.1,24.1,30.20,NE,35,0.0,1.0,72,0.00,,FEW085,0.00,VWS V14.01,2013-02-12 04:10:00,
2013-02-11 22:13:00,32.8,23.8,30.19,NE,44,1.0,1.0,69,0.00,,SCT110,0.00,VWS V14.01,2013-02-12 04:13:00,
2013-02-11 22:15:00,32.1,23.4,30.20,NE,36,0.0,0.0,70,0.00,,FEW085,0.00,VWS V14.01,2013-02-12 04:15:00,
2013-02-11 22:18:00,32.9,23.9,30.19,NE,44,0.0,0.0,69,0.00,,SCT110,0.00,VWS V14.01,2013-02-12 04:18:00,
2013-02-11 22:20:00,32.3,23.3,30.20,NE,36,0.0,1.0,69,0.00,,FEW085,0.00,VWS V14.01,2013-02-12 04:20:00,
2013-02-11 22:23:00,32.7,23.7,30.19,NE,44,0.0,1.0,69,0.00,,SCT110,0.00,VWS V14.01,2013-02-12 04:23:00,
2013-02-11 22:25:00,32.3,23.6,30.19,NE,36,0.0,0.0,70,0.00,,FEW085,0.00,VWS V14.01,2013-02-12 04:25:00,
2013-02-11 22:28:00,32.9,24.9,30.19,NE,35,1.0,1.0,72,0.00,,SCT110,0.00,VWS V14.01,2013-02-12 04:28:00,
2013-02-11 22:30:00,32.2,23.9,30.20,NNW,333,2.0,3.0,71,0.00,,FEW085,0.00,VWS V14.01,2013-02-12 04:30:00,
2013-02-11 22:33:00,32.7,24.4,30.19,NE,36,1.0,1.0,71,0.00,,BKN120,0.00,VWS V14.01,2013-02-12 04:33:00,
2013-02-11 22:35:00,32.3,23.6,30.19,NW,324,1.0,2.0,70,0.00,,FEW085,0.00,VWS V14.01,2013-02-12 04:35:00,
2013-02-11 22:38:00,32.7,23.3,30.19,NE,35,0.0,1.0,68,0.00,,BKN120,0.00,VWS V14.01,2013-02-12 04:38:00,
2013-02-11 22:40:00,32.4,23.4,30.19,NW,324,0.0,1.0,69,0.00,,FEW085,0.00,VWS V14.01,2013-02-12 04:40:00,
2013-02-11 22:43:00,32.6,23.6,30.19,NE,35,0.0,0.0,69,0.00,,BKN120,0.00,VWS V14.01,2013-02-12 04:43:00,
2013-02-11 22:45:00,32.5,23.5,30.20,NW,318,2.0,2.0,69,0.00,,FEW085,0.00,VWS V14.01,2013-02-12 04:45:00,
2013-02-11 22:48:00,32.3,23.3,30.19,NE,36,0.0,0.0,69,0.00,,BKN120,0.00,VWS V14.01,2013-02-12 04:48:00,
2013-02-11 22:50:00,32.4,23.0,30.20,NW,316,2.0,4.0,68,0.00,,FEW085,0.00,VWS V14.01,2013-02-12 04:50:00,
2013-02-11 22:53:00,31.9,22.9,30.19,NE,36,0.0,0.0,69,0.00,,BKN120,0.00,VWS V14.01,2013-02-12 04:53:00,
2013-02-11 22:55:00,32.4,23.4,30.20,NW,322,2.0,3.0,69,0.00,,FEW085,0.00,VWS V14.01,2013-02-12 04:55:00,
2013-02-11 22:58:00,31.9,23.9,30.20,NE,36,0.0,1.0,72,0.00,,BKN120,0.00,VWS V14.01,2013-02-12 04:58:00,
2013-02-11 23:00:00,31.9,23.9,30.20,NE,36,0.0,1.0,72,0.00,,BKN120,0.00,VWS V14.01,2013-02-12 05:00:00,
2013-02-11 23:05:00,32.0,23.7,30.20,NE,36,0.0,0.0,71,0.00,,BKN120,0.00,VWS V14.01,2013-02-12 05:05:00,
2013-02-11 23:10:00,32.1,24.1,30.20,NE,35,0.0,0.0,72,0.00,,BKN120,0.00,VWS V14.01,2013-02-12 05:10:00,
2013-02-11 23:15:00,32.1,23.4,30.20,NE,36,0.0,0.0,70,0.00,,BKN120,0.00,VWS V14.01,2013-02-12 05:15:00,
2013-02-11 23:20:00,32.3,23.3,30.20,NE,36,0.0,1.0,69,0.00,,BKN120,0.00,VWS V14.01,2013-02-12 05:20:00,
2013-02-11 23:25:00,32.3,23.6,30.19,NE,36,0.0,0.0,70,0.00,,BKN120,0.00,VWS V14.01,2013-02-12 05:25:00,
2013-02-11 23:30:00,32.2,23.9,30.20,NNW,333,2.0,3.0,71,0.00,,BKN120,0.00,VWS V14.01,2013-02-12 05:30:00,
2013-02-11 23:35:00,32.3,23.6,30.19,NW,325,1.0,2.0,70,0.00,,BKN120,0.00,VWS V14.01,2013-02-12 05:35:00,
2013-02-11 23:40:00,32.4,23.4,30.19,NW,325,0.0,1.0,69,0.00,,BKN120,0.00,VWS V14.01,2013-02-12 05:40:00,
2013-02-11 23:45:00,32.5,23.5,30.20,NW,317,1.0,2.0,69,0.00,,BKN120,0.00,VWS V14.01,2013-02-12 05:45:00,
2013-02-11 23:50:00,32.4,23.0,30.20,NW,316,2.0,4.0,68,0.00,,BKN120,0.00,VWS V14.01,2013-02-12 05:50:00,
2013-02-11 23:54:00,32.4,23.4,30.20,NW,322,1.0,3.0,69,0.00,,BKN120,0.00,VWS V14.01,2013-02-12 05:54:00,
2013-02-11 23:55:00,30.0,22.4,30.17,NW,326,0.0,0.0,73,0.00,,FEW085,0.00,VWS V14.01,2013-02-12 05:55:00,
2013-02-11 23:59:00,32.2,23.2,30.20,NNW,329,1.0,4.0,69,0.00,,BKN120,0.00,VWS V14.01,2013-02-12 05:59:00,